Chicago, IL

6:26 PM CDT on March 29, 2017 (GMT -0500)
Chicago-O'Hare International

Weather History for KORD - December, 2013

Change the Weather History Date:

Wednesday, December 4, 2013

  Actual Average Record
Temperature  
Mean Temperature 48 °F 31 °F  
Max Temperature 56 °F 39 °F 66 °F (1998)
Min Temperature 39 °F 24 °F 0 °F (1893)
Degree Days  
Heating Degree Days 17 34  
Month to date heating degree days 95 132  
Since 1 July heating degree days 1378 1388  
Cooling Degree Days 0 0  
Month to date cooling degree days 0 0  
Year to date cooling degree days 933 843  
Moisture  
Dew Point 48 °F    
Average Humidity 91    
Maximum Humidity 100    
Minimum Humidity 82    
Precipitation  
Precipitation 0.02 in 0.09 in 1.19 in (1973)
Month to date precipitation 0.11 0.37  
Year to date precipitation 40.26 35.01  
Snow  
Snow 0.00 in 0.20 in 5.10 in (2010)
Month to date snowfall 0.0 0.8  
Since 1 July snowfall 0.9 2.2  
Snow Depth 0.00 in    
Sea Level Pressure  
Sea Level Pressure 29.62 in    
Wind  
Wind Speed 12 mph (South)    
Max Wind Speed 29 mph    
Max Gust Speed 36 mph    
Visibility 5 miles    
Events      
T = Trace of Precipitation, MM = Missing Value Source: NWS Daily Summary

Daily Weather History Graph

Daily Weather History Graph

Search for Another Location

Airport or City:

Trip Planner

Search our weather history database for the weather conditions in past years. The results will help you decide how hot, cold, wet, or windy it might be!

Date:

Astronomy

Dec. 04, 2013 Rise Set
Actual Time 7:03 AM CST 4:20 PM CST
Civil Twilight 6:32 AM CST 4:51 PM CST
Nautical Twilight 5:57 AM CST 5:26 PM CST
Astronomical Twilight 5:23 AM CST 6:00 PM CST
Moon 8:30 AM CST (12/4) 6:31 PM CST (12/4)
Length of Visible Light 10h 19m
Length of Day
9h 17m
Waxing Crescent, 4% of the Moon is Illuminated
Dec 4
Waxing Crescent
Dec 9
First Quarter
Dec 17
Full
Dec 25
Last Quarter
Jan 1
New

Hourly Weather History & Observations

Time (CST) Temp. Windchill Dew Point Humidity Pressure Visibility Wind Dir Wind Speed Gust Speed Precip Events Conditions
12:51 AM 48.9 °F - 48.0 °F 97% 29.71 in 4.0 mi South 6.9 mph - N/A   Overcast
1:51 AM 48.9 °F - 48.0 °F 97% 29.73 in 4.0 mi South 6.9 mph - N/A   Overcast
2:51 AM 48.9 °F - 46.9 °F 93% 29.73 in 4.0 mi South 9.2 mph - N/A   Overcast
3:51 AM 48.0 °F - 46.9 °F 96% 29.72 in 4.0 mi SSE 5.8 mph - N/A   Overcast
4:51 AM 48.0 °F - 46.9 °F 96% 29.71 in 4.0 mi SE 8.1 mph - N/A   Overcast
5:51 AM 48.0 °F - 46.9 °F 96% 29.71 in 4.0 mi SE 8.1 mph - N/A   Overcast
6:51 AM 48.0 °F - 46.0 °F 93% 29.70 in 3.0 mi SE 11.5 mph - N/A   Overcast
7:23 AM 48.2 °F - 46.4 °F 93% 29.69 in 1.2 mi SSE 12.7 mph - N/A   Overcast
7:51 AM 48.0 °F - 46.9 °F 96% 29.70 in 1.2 mi SE 11.5 mph - N/A   Overcast
7:58 AM 48.2 °F - 46.4 °F 93% 29.69 in 2.0 mi SSE 12.7 mph - N/A   Overcast
8:51 AM 48.9 °F - 46.9 °F 93% 29.68 in 2.0 mi SE 11.5 mph - N/A   Overcast
9:36 AM 48.2 °F - 46.4 °F 93% 29.68 in 1.2 mi SSE 11.5 mph - 0.00 in   Light Drizzle
9:51 AM 48.9 °F - 48.0 °F 97% 29.68 in 1.2 mi SE 10.4 mph - 0.01 in   Light Drizzle
10:12 AM 48.2 °F - 48.2 °F 100% 29.67 in 2.0 mi SE 9.2 mph - 0.00 in   Overcast
10:51 AM 50.0 °F - 48.9 °F 96% 29.66 in 2.0 mi SSE 9.2 mph - 0.00 in   Overcast
11:51 AM 51.1 °F - 48.9 °F 92% 29.62 in 2.0 mi SSE 9.2 mph - N/A   Overcast
12:51 PM 52.0 °F - 51.1 °F 97% 29.56 in 2.0 mi SE 11.5 mph - 0.00 in   Overcast
1:15 PM 53.6 °F - 51.8 °F 94% 29.54 in 1.2 mi SSE 11.5 mph - 0.00 in   Light Drizzle
1:51 PM 53.1 °F - 52.0 °F 96% 29.54 in 1.2 mi SSE 15.0 mph 20.7 mph 0.00 in   Light Drizzle
2:51 PM 53.1 °F - 52.0 °F 96% 29.51 in 1.2 mi SSE 12.7 mph - 0.00 in   Light Drizzle
3:44 PM 53.6 °F - 53.6 °F 100% 29.50 in 1.8 mi SSE 12.7 mph - 0.00 in   Light Drizzle
3:51 PM 54.0 °F - 53.1 °F 97% 29.51 in 1.8 mi South 10.4 mph 19.6 mph 0.00 in   Light Drizzle
4:14 PM 53.6 °F - 53.6 °F 100% 29.52 in 2.5 mi South 11.5 mph - 0.00 in   Light Drizzle
4:38 PM 53.6 °F - 53.6 °F 100% 29.51 in 4.0 mi South 10.4 mph - 0.01 in   Light Drizzle
4:51 PM 55.0 °F - 54.0 °F 96% 29.52 in 6.0 mi South 12.7 mph 17.3 mph 0.01 in   Light Drizzle
5:19 PM 55.4 °F - 53.6 °F 94% 29.52 in 9.0 mi SSW 16.1 mph - 0.00 in   Overcast
5:51 PM 55.9 °F - 52.0 °F 87% 29.52 in 8.0 mi SSW 16.1 mph 25.3 mph 0.00 in   Overcast
6:51 PM 55.9 °F - 51.1 °F 84% 29.53 in 10.0 mi SW 13.8 mph 21.9 mph N/A   Overcast
7:51 PM 55.0 °F - 51.1 °F 86% 29.54 in 9.0 mi SW 17.3 mph 25.3 mph N/A   Overcast
8:51 PM 55.0 °F - 50.0 °F 83% 29.55 in 9.0 mi SW 16.1 mph 23.0 mph N/A   Overcast
9:12 PM 53.6 °F - 48.2 °F 82% 29.56 in 10.0 mi WSW 26.5 mph 35.7 mph N/A   Overcast
9:25 PM 50.0 °F - 46.4 °F 87% 29.56 in 10.0 mi West 17.3 mph 26.5 mph N/A   Overcast
9:51 PM 46.9 °F - 43.0 °F 86% 29.60 in 10.0 mi WSW 15.0 mph 23.0 mph N/A   Overcast
10:07 PM 44.6 °F 38.4 °F 39.2 °F 81% 29.59 in 10.0 mi West 12.7 mph 25.3 mph N/A   Overcast
10:16 PM 44.6 °F 38.1 °F 37.4 °F 76% 29.60 in 10.0 mi WSW 13.8 mph 24.2 mph N/A   Overcast
10:51 PM 43.0 °F 35.4 °F 37.9 °F 82% 29.63 in 10.0 mi WSW 16.1 mph 23.0 mph N/A   Overcast
11:32 PM 41.0 °F 33.1 °F 35.6 °F 81% 29.65 in 10.0 mi West 15.0 mph 24.2 mph N/A   Overcast
11:51 PM 39.9 °F 31.4 °F 36.0 °F 86% 29.68 in 10.0 mi WSW 16.1 mph 31.1 mph N/A   Overcast